Waarnemingen

Advertentie
Mijn weer
Cardinham, Groot Brittannië (3823): temperatuur & dauwpunt: 16.10.2017 10:00:00 - 22.10.2017 10:00:00 (BST)Cardinham, Groot Brittannië (3823): temperatuur -20cm & temperatuur -100cm: 16.10.2017 10:00:00 - 22.10.2017 10:00:00 (BST)Cardinham, Groot Brittannië (3823): windsnelheid & windstoten: 16.10.2017 10:00:00 - 22.10.2017 10:00:00 (BST)Cardinham, Groot Brittannië (3823): windrichting: 16.10.2017 10:00:00 - 22.10.2017 10:00:00 (BST)Cardinham, Groot Brittannië (3823): luchtdruk: 16.10.2017 10:00:00 - 22.10.2017 10:00:00 (BST)Cardinham, Groot Brittannië (3823): zicht: 16.10.2017 10:00:00 - 22.10.2017 10:00:00 (BST)Cardinham, Groot Brittannië (3823): neerslag: 16.10.2017 10:00:00 - 22.10.2017 10:00:00 (BST)
Datum & Tijd tt [°C] td [°C] tt -20cm [°C] tt -100cm [°C] ff [km/u] ff [kn] fx [km/u] fx [kn] dd ppp [hPa] vv [km] rr [mm]
22.10.2017 10:00:00 10,3 7,5 13,0 13,9 29 16 61 33 WNW 1018,3 6 0,0
22.10.2017 09:00:00 9,9 6,3 - - 34 18 55 30 WNW 1017,8 23 0,0
22.10.2017 08:00:00 9,2 5,3 - - 29 16 57 31 WNW 1017,4 29 0,0
22.10.2017 07:00:00 9,1 4,7 - - 28 15 55 30 WNW 1016,9 20 0,0
22.10.2017 06:00:00 8,1 5,1 - - 29 16 55 30 WNW 1016,4 18 0,4
22.10.2017 05:00:00 9,1 4,5 - - 35 19 55 30 WNW 1015,8 20 0,0
22.10.2017 04:00:00 8,2 5,1 - - 29 16 59 32 WNW 1015,1 28 -
22.10.2017 03:00:00 8,6 6,2 - - 37 20 61 33 WNW 1014,5 20 0,2
22.10.2017 02:00:00 9,5 6,1 - - 34 18 68 37 WNW 1013,5 19 0,0
22.10.2017 01:00:00 9,8 5,9 - - 39 21 65 35 WNW 1012,7 19 0,0
22.10.2017 00:00:00 9,7 6,1 - - 39 21 72 39 WNW 1012,1 16 0,2
21.10.2017 23:00:00 9,9 6,5 - - 39 21 67 36 WNW 1011,2 17 0,0
21.10.2017 22:00:00 10,1 7,2 - - 41 22 68 37 WNW 1010,1 15 0,0
21.10.2017 21:00:00 10,0 7,6 - - 41 22 68 37 WNW 1009,0 12 0,0
21.10.2017 20:00:00 9,9 8,5 - - 37 20 70 38 W 1008,1 9 0,2
21.10.2017 19:00:00 9,8 9,1 - - 41 22 74 40 W 1006,8 4,3 1,8
21.10.2017 18:00:00 9,8 9,4 - - 46 25 81 44 W 1005,1 3,8 3,4
21.10.2017 17:00:00 9,5 8,8 - - 48 26 78 42 W 1004,0 3,3 1,8
21.10.2017 16:00:00 9,4 8,5 - - 48 26 83 45 W 1003,7 8 0,8
21.10.2017 15:00:00 10,9 8,1 - - 42 23 76 41 W 1003,0 11 0,0
21.10.2017 14:00:00 10,7 8,9 - - 50 27 70 38 W 1002,8 10 0,2
21.10.2017 13:00:00 10,8 8,4 - - 48 26 81 44 WZW 1002,6 9 0,4
21.10.2017 12:00:00 10,4 8,7 - - 42 23 70 38 WZW 1002,1 4,5 0,2
21.10.2017 11:00:00 10,8 8,5 - - 44 24 67 36 WZW 1001,6 10 1,0
21.10.2017 10:00:00 10,8 8,2 13,7 14,0 37 20 63 34 WZW 1001,0 10 0,4
21.10.2017 09:00:00 9,7 8,0 - - 39 21 63 34 WZW 1000,4 13 0,2
21.10.2017 08:00:00 10,2 8,9 - - 37 20 76 41 WZW 999,5 10 1,8
21.10.2017 07:00:00 10,7 9,1 - - 35 19 63 34 ZW 999,0 7 -
21.10.2017 06:00:00 10,9 8,8 - - 42 23 63 34 ZW 998,9 10 -
21.10.2017 05:00:00 11,2 8,7 - - 39 21 57 31 ZW 998,8 11 -
21.10.2017 04:00:00 11,7 8,8 - - 39 21 54 29 ZZW 999,0 10 -
21.10.2017 03:00:00 11,7 9,3 - - 35 19 52 28 ZZW 999,5 10 -
21.10.2017 02:00:00 11,5 9,8 - - 31 17 57 31 ZW 999,6 11 -
21.10.2017 01:00:00 12,7 11,3 - - 29 16 54 29 ZZW 999,8 10 -
21.10.2017 00:00:00 13,1 12,0 - - 31 17 52 28 ZZW 999,9 11 -
20.10.2017 23:00:00 12,0 11,7 - - 18 10 - - Z 1000,3 11 -
20.10.2017 22:00:00 11,3 9,9 - - 22 12 50 27 ZZW 1000,8 28 -
20.10.2017 21:00:00 13,8 13,6 - - 39 21 72 39 ZZW 1000,4 4,1 2,2
20.10.2017 20:00:00 13,3 13,2 - - 37 20 63 34 Z 1000,8 7 6,2
20.10.2017 19:00:00 12,9 12,6 - - 39 21 61 33 ZZO 1001,9 2,4 3,8
20.10.2017 18:00:00 12,4 11,8 - - 31 17 63 34 Z 1003,6 9 0,8
20.10.2017 17:00:00 12,8 10,9 - - 37 20 55 30 Z 1004,8 15 0,0
20.10.2017 16:00:00 12,4 10,2 - - 34 18 57 31 Z 1005,9 19 0,0
20.10.2017 15:00:00 12,1 9,5 - - 34 18 48 26 Z 1006,2 18 0,0
20.10.2017 14:00:00 12,3 9,8 - - 28 15 46 25 Z 1007,3 24 0,0
20.10.2017 13:00:00 11,8 8,3 - - 22 12 48 26 Z 1008,4 21 0,0
20.10.2017 12:00:00 12,2 8,1 - - 21 11 - - ZW 1008,9 27 0,0
20.10.2017 11:00:00 11,6 7,1 - - 11 6 - - W 1009,0 35 0,0
20.10.2017 10:00:00 10,9 6,4 14,0 14,2 21 11 - - W 1008,8 21 0,0
20.10.2017 09:00:00 9,3 5,8 - - 22 12 - - W 1008,4 25 0,0
20.10.2017 08:00:00 8,4 5,5 - - 22 12 - - W 1007,6 19 0,0
20.10.2017 07:00:00 8,7 5,8 - - 22 12 - - WNW 1006,7 21 0,0
20.10.2017 06:00:00 9,3 6,0 - - 28 15 54 29 WNW 1005,9 21 0,0
20.10.2017 05:00:00 9,5 6,9 - - 29 16 54 29 WNW 1004,5 17 0,0
20.10.2017 04:00:00 9,7 7,2 - - 35 19 63 34 WNW 1003,2 21 0,0
20.10.2017 03:00:00 9,9 8,6 - - 37 20 59 32 WNW 1001,6 14 0,2
20.10.2017 02:00:00 10,0 9,6 - - 35 19 65 35 WNW 1000,3 6 0,4
20.10.2017 01:00:00 10,1 10,0 - - 44 24 72 39 W 998,8 3,8 1,0
20.10.2017 00:00:00 10,5 10,3 - - 42 23 70 38 W 997,1 4,7 1,0
19.10.2017 23:00:00 10,5 10,4 - - 41 22 68 37 W 995,8 3,3 3,8
19.10.2017 22:00:00 10,5 10,4 - - 39 21 70 38 WZW 994,6 2,5 2,2
19.10.2017 21:00:00 10,7 10,5 - - 37 20 63 34 WZW 993,9 3,8 2,4
19.10.2017 20:00:00 10,6 10,3 - - 37 20 54 29 ZW 993,4 2,3 0,4
19.10.2017 19:00:00 11,0 10,1 - - 28 15 - - ZZW 993,6 30 0,0
19.10.2017 18:00:00 11,9 10,6 - - 29 16 52 28 ZZW 993,8 20 0,0
19.10.2017 17:00:00 12,9 12,5 - - 29 16 72 39 ZZW 993,7 10 2,0
19.10.2017 16:00:00 13,0 12,9 - - 44 24 68 37 ZZO 994,0 2,7 3,6
19.10.2017 15:00:00 13,0 12,7 - - 42 23 57 31 Z 995,8 3,2 3,0
19.10.2017 14:00:00 13,1 12,6 - - 39 21 59 32 Z 997,6 5 0,6
19.10.2017 13:00:00 13,5 12,6 - - 29 16 48 26 Z 998,9 19 0,0
19.10.2017 12:00:00 13,1 12,2 - - 28 15 - - ZZO 1000,3 20 0,0
19.10.2017 11:00:00 13,2 12,1 - - 21 11 - - ZZO 1001,1 20 0,0
19.10.2017 10:00:00 13,5 12,9 14,2 14,2 24 13 - - ZZO 1001,8 11 0,0
19.10.2017 09:00:00 12,8 12,5 - - 21 11 - - ZZO 1002,4 10 0,0
19.10.2017 08:00:00 12,8 12,5 - - 18 10 - - ZZO 1002,9 8 0,0
19.10.2017 07:00:00 12,6 12,4 - - 21 11 - - ZZO 1003,2 9 0,0
19.10.2017 06:00:00 12,4 12,3 - - 22 12 - - ZO 1004,0 6 0,0
19.10.2017 05:00:00 12,3 12,1 - - 16 9 - - ZZO 1004,8 5 0,0
19.10.2017 04:00:00 12,6 12,4 - - 16 9 - - ZZO 1005,8 4,8 0,0
19.10.2017 03:00:00 12,4 12,2 - - 15 8 - - ZZO 1006,8 6 0,0
19.10.2017 02:00:00 12,4 12,0 - - 16 9 - - Z 1007,3 11 0,0
19.10.2017 01:00:00 12,6 12,3 - - 21 11 - - Z 1007,6 14 0,0
19.10.2017 00:00:00 12,6 12,5 - - 18 10 - - ZZO 1007,9 10 0,0
18.10.2017 23:00:00 12,8 12,6 - - 15 8 - - ZZO 1008,3 5 0,0
18.10.2017 22:00:00 12,8 12,5 - - 15 8 - - ZZO 1008,4 9 0,0
18.10.2017 21:00:00 12,9 12,7 - - 15 8 - - ZZO 1008,7 7 0,0
18.10.2017 20:00:00 12,9 12,7 - - 15 8 - - Z 1009,0 9 0,2
18.10.2017 19:00:00 13,1 12,6 - - 13 7 - - ZZO 1008,8 11 0,0
18.10.2017 18:00:00 13,2 12,6 - - 15 8 - - Z 1009,1 13 0,0
18.10.2017 17:00:00 13,6 12,7 - - 13 7 - - Z 1008,9 10 0,0
18.10.2017 16:00:00 14,1 13,0 - - 13 7 - - ZZO 1008,9 11 0,0
18.10.2017 15:00:00 14,1 12,3 - - 16 9 - - ZZO 1009,2 15 0,0
18.10.2017 14:00:00 14,0 12,6 - - 15 8 - - ZO 1009,4 11 0,0
18.10.2017 13:00:00 13,4 12,4 - - 13 7 - - ZZO 1009,8 10 0,0
18.10.2017 12:00:00 12,9 12,6 - - 11 6 - - ZZO 1010,1 7 0,0
18.10.2017 11:00:00 12,3 12,1 - - 16 9 - - ZO 1010,1 6 0,0
18.10.2017 10:00:00 11,5 11,3 14,2 14,2 16 9 - - ZO 1010,1 8 0,0
18.10.2017 09:00:00 10,7 10,5 - - 13 7 - - ZO 1010,3 7 0,0
18.10.2017 08:00:00 10,9 10,5 - - 13 7 - - ZO 1009,8 9 0,0
18.10.2017 07:00:00 11,1 10,6 - - 13 7 - - ZO 1009,8 13 0,8
18.10.2017 06:00:00 11,3 10,4 - - 11 6 - - OZO 1010,2 8 0,0
18.10.2017 05:00:00 11,2 10,0 - - 9 5 - - OZO 1010,6 23 0,0
18.10.2017 04:00:00 11,0 9,4 - - 13 7 - - OZO 1011,2 30 0,0
18.10.2017 03:00:00 10,8 9,0 - - 15 8 - - O 1011,7 35 0,0
18.10.2017 02:00:00 10,0 8,6 - - 16 9 - - O 1012,5 45 0,0
18.10.2017 01:00:00 10,1 8,6 - - 18 10 - - O 1013,0 40 0,0
18.10.2017 00:00:00 10,0 8,3 - - 16 9 - - O 1014,1 40 0,0
17.10.2017 23:00:00 9,8 8,1 - - 18 10 - - O 1015,1 28 0,0
17.10.2017 22:00:00 9,6 7,9 - - 9 5 - - O 1016,0 29 0,0
17.10.2017 21:00:00 9,5 8,6 - - 13 7 - - O 1016,0 28 0,0
17.10.2017 20:00:00 9,4 8,8 - - 11 6 - - OZO 1016,2 17 0,0
17.10.2017 19:00:00 9,7 9,2 - - 11 6 - - ZO 1016,0 12 0,0
17.10.2017 18:00:00 10,4 9,3 - - 9 5 - - ZO 1016,1 15 0,2
17.10.2017 17:00:00 11,2 9,6 - - 9 5 - - O 1016,4 14 0,0
17.10.2017 16:00:00 11,7 10,1 - - 9 5 - - OZO 1017,2 14 0,0
17.10.2017 15:00:00 11,8 10,2 - - 9 5 - - ZO 1018,1 14 0,0
17.10.2017 14:00:00 11,9 9,8 - - 5 3 - - OZO 1018,8 14 0,0
17.10.2017 13:00:00 12,1 9,7 - - 5 3 - - ZO 1019,4 17 0,0
17.10.2017 12:00:00 12,0 9,6 - - 9 5 - - Z 1020,2 18 0,0
17.10.2017 11:00:00 12,0 9,9 - - 4 2 - - WZW 1020,0 16 0,0
17.10.2017 10:00:00 11,8 10,1 14,7 14,2 2 1 - - ZW 1019,8 21 0,0
17.10.2017 09:00:00 9,6 9,1 - - 8 4 - - ZZW 1020,0 12 0,0
17.10.2017 08:00:00 7,4 6,8 - - 4 2 - - ZZO 1019,8 11 0,0
17.10.2017 07:00:00 7,3 6,7 - - 8 4 - - Z 1019,6 10 0,0
17.10.2017 06:00:00 7,8 7,1 - - 9 5 - - ZW 1019,3 11 0,0
17.10.2017 05:00:00 8,1 7,0 - - 11 6 - - ZW 1019,5 12 0,0
17.10.2017 04:00:00 8,4 7,2 - - 11 6 - - ZW 1019,6 13 0,0
17.10.2017 03:00:00 9,0 7,6 - - 13 7 - - ZW 1019,8 12 0,0
17.10.2017 02:00:00 9,6 7,8 - - 18 10 - - ZW 1019,8 12 0,0
17.10.2017 01:00:00 9,7 7,7 - - 15 8 - - ZW 1019,8 12 0,0
17.10.2017 00:00:00 10,5 8,1 - - 22 12 - - ZW 1019,2 13 0,0
16.10.2017 23:00:00 11,3 8,5 - - 22 12 46 25 ZW 1018,6 14 0,0
16.10.2017 22:00:00 11,0 7,5 - - 28 15 50 27 ZW 1018,0 14 0,0
16.10.2017 21:00:00 11,6 8,0 - - 29 16 - - ZW 1017,3 13 0,0
16.10.2017 20:00:00 11,9 7,7 - - 28 15 48 26 ZW 1016,3 13 0,0
16.10.2017 19:00:00 12,4 8,0 - - 31 17 61 33 ZW 1015,5 12 -
16.10.2017 18:00:00 12,7 8,0 - - 31 17 85 46 ZW 1014,2 13 0,0
16.10.2017 17:00:00 13,3 7,7 - - 50 27 83 45 ZW 1013,5 13 0,0
16.10.2017 16:00:00 14,1 8,1 - - 46 25 87 47 ZW 1012,7 13 0,0
16.10.2017 15:00:00 14,6 8,2 - - 52 28 80 43 ZW 1012,1 13 0,0
16.10.2017 14:00:00 15,2 9,1 - - 52 28 89 48 ZZW 1011,3 11 0,0
16.10.2017 13:00:00 15,4 10,4 - - 48 26 87 47 ZZW 1010,9 11 0,0
16.10.2017 12:00:00 15,5 10,7 - - 52 28 85 46 ZZW 1010,4 10 0,0
16.10.2017 11:00:00 15,3 10,8 - - 55 30 83 45 ZZW 1009,3 11 0,0
16.10.2017 10:00:00 15,5 12,4 14,7 14,2 46 25 76 41 ZZW 1008,8 9 0,0

tt = temperatuur
td = dauwpunt
tt -20cm = temperatuur -20cm
tt -100cm = temperatuur -100cm
ff = windsnelheid
fx = windstoten
dd = windrichting
ppp = luchtdruk
vv = zicht
rr = neerslag

Weerstations in de omgeving